Orbital Elements at Epoch 2459200.5 (2020-Dec-17.0) TDB
Reference: JPL 18 (heliocentric ecliptic J2000)
Element | Value | Uncertainty (1-sigma) | Units |
e | .09702715331556137 | 4.0676e-08 | |
a | 2.779932911661569 | 1.6858e-08 | au |
q | 2.510203934834807 | 1.1145e-07 | au |
i | 4.252230503607396 | 4.1299e-06 | deg |
node | 122.5227770860475 | 5.1285e-05 | deg |
peri | 209.9151538234438 | 5.5599e-05 | deg |
M | 37.40357819842544 | 1.9288e-05 | deg |
tp | 2459024.602142480796 (2020-Jun-24.10214248) | 9.1003e-05 | TDB |
period | 1692.972484369933 4.64 | 1.5399e-05 4.216e-08 | d yr |
n | .2126437395312895 | 1.9342e-09 | deg/d |
Q | 3.04966188848833 | 1.8493e-08 | au |
|
| | Orbit Determination Parameters
Additional Information
|